FW7031 Weather Reports


Display with metric or nautical units.
time (UTC)temp
F
wind
direction
speed
MPH
gust
MPH
rain 1hr
in
rain 24hr
in
rain mn
in
humidity
%
barometer
mb
20260507213035 65 317 4.0 17.0 0.00 0.02 0.00 25 1017.5
20260507211535 64 293 5.0 18.0 0.00 0.03 0.00 24 1017.6
20260507210035 64 327 5.0 13.0 0.00 0.04 0.00 25 1018.1
20260507204537 63 311 7.0 15.0 0.00 0.04 0.00 26 1018.4
20260507203037 63 23 8.0 14.0 0.00 0.05 0.00 25 1018.4
20260507201529 63 36 7.0 13.0 0.00 0.06 0.00 25 1018.7
20260507200031 63 244 7.0 19.0 0.00 0.08 0.00 25 1018.8
20260507194529 63 336 7.0 16.0 0.00 0.09 0.00 25 1018.8
20260507193029 63 343 6.0 20.0 0.00 0.09 0.00 25 1019.1
20260507191529 63 305 9.0 21.0 0.00 0.09 0.00 26 1019.2
20260507190030 63 338 7.0 16.0 0.00 0.09 0.00 24 1019.2
20260507185232 63 329 3.0 8.0 0.00 0.09 0.00 21 1019.3
20260507183712 62 324 1.0 9.0 0.00 0.09 0.00 20 1019.5
20260507181525 62 224 3.0 10.0 0.00 0.09 0.00 23 1019.6
20260507180025 62 252 2.0 7.0 0.00 0.09 0.00 22 1019.7
20260507174523 60 342 2.0 8.0 0.00 0.09 0.00 21 1019.9
20260507173020 60 352 3.0 8.0 0.00 0.09 0.00 23 1020.1
20260507171515 59 353 2.0 8.0 0.00 0.09 0.00 22 1020.2
20260507170015 59 307 3.0 12.0 0.00 0.09 0.00 21 1020.2
20260507165211 58 279 5.0 15.0 0.00 0.09 0.00 25 1020.3
20260507163014 57 279 4.0 12.0 0.00 0.09 0.00 23 1020.6
20260507161517 56 333 4.0 12.0 0.00 0.09 0.00 23 1020.7
20260507161417 56 332 4.0 12.0 0.00 0.09 0.00 26 1020.6
20260507154510 55 293 8.0 15.0 0.00 0.09 0.00 29 1020.6
20260507153717 55 326 6.0 16.0 0.00 0.09 0.00 29 1020.6
20260507151509 53 332 5.0 12.0 0.00 0.09 0.00 32 1020.6
20260507150009 52 281 5.0 12.0 0.00 0.09 0.00 35 1020.6
20260507144509 51 328 6.0 19.0 0.00 0.09 0.00 34 1020.7
20260507143009 50 319 6.0 17.0 0.00 0.09 0.00 38 1020.6
20260507142158 48 317 5.0 11.0 0.00 0.09 0.00 41 1020.6
20260507140006 47 336 5.0 9.0 0.00 0.09 0.00 41 1020.7
20260507134503 45 339 4.0 8.0 0.00 0.09 0.00 42 1020.7
20260507133003 44 1 3.0 7.0 0.00 0.09 0.00 45 1020.6
20260507131505 41 22 5.0 8.0 0.00 0.09 0.00 49 1020.4
20260507130004 41 40 2.0 7.0 0.00 0.09 0.00 47 1020.3
20260507124457 39 28 2.0 7.0 0.00 0.09 0.00 50 1020.2
20260507122957 37 24 4.0 8.0 0.00 0.09 0.00 54 1020.2
20260507121457 36 25 4.0 8.0 0.00 0.09 0.00 55 1020.2
20260507115957 38 32 3.0 10.0 0.00 0.09 0.00 51 1020.2
20260507114457 38 21 3.0 8.0 0.00 0.09 0.00 48 1020.1
20260507112959 37 31 2.0 7.0 0.00 0.09 0.00 52 1020.3
20260507111451 35 28 4.0 9.0 0.00 0.09 0.00 55 1020.3
20260507110646 35 35 4.0 7.0 0.00 0.09 0.00 56 1020.3
20260507104452 35 52 4.0 7.0 0.00 0.09 0.00 58 1020.2
20260507103653 35 42 4.0 7.0 0.00 0.09 0.00 58 1020.2
20260507101453 35 40 4.0 7.0 0.00 0.09 0.00 59 1020.4
20260507095952 35 60 4.0 8.0 0.00 0.09 0.00 60 1020.4
20260507094447 34 26 4.0 7.0 0.00 0.09 0.00 63 1020.4
20260507092947 33 39 2.0 10.0 0.00 0.09 0.00 66 1020.7
20260507091446 33 19 4.0 8.0 0.00 0.09 0.00 70 1020.6
20260507090526 31 56 2.0 6.0 0.00 0.09 0.00 81 1020.9
20260507085949 33 54 4.0 8.0 0.00 0.09 0.00 75 1020.8
20260507082945 30 46 1.0 4.0 0.00 0.09 0.00 90 1020.9
20260507082145 30 125 0.0 2.0 0.00 0.09 0.00 93 1021.3
20260507075945 29 125 0.0 2.0 0.00 0.09 0.00 96 1021.3
20260507074444 29 125 0.0 2.0 0.00 0.09 0.00 96 1021.5
20260507072943 29 125 0.0 0.0 0.00 0.09 0.00 96 1021.8
20260507071441 29 125 0.0 0.0 0.00 0.09 0.00 96 1021.8
20260507065939 29 125 0.0 0.0 0.00 0.09 0.00 96 1021.7
20260507064433 29 125 0.0 0.0 0.00 0.09 0.00 95 1021.8
20260507062932 30 125 0.0 0.0 0.00 0.09 0.00 95 1021.8
20260507061431 30 125 0.0 1.0 0.00 0.09 0.00 95 1021.8
20260507055929 30 125 0.0 0.0 0.00 0.09 0.09 95 1021.9
20260507054430 31 125 0.0 0.0 0.00 0.09 0.09 95 1021.8
20260507053639 31 125 0.0 0.0 0.00 0.09 0.09 95 1021.9
20260507051425 31 125 0.0 1.0 0.00 0.09 0.09 94 1021.8
20260507045926 31 125 0.0 2.0 0.00 0.09 0.09 94 1021.5
20260507045132 32 125 0.0 2.0 0.00 0.09 0.09 93 1021.5
20260507042926 32 125 0.0 3.0 0.00 0.09 0.09 93 1021.5
20260507041426 32 125 1.0 4.0 0.00 0.09 0.09 92 1021.7
20260507035926 32 120 1.0 4.0 0.00 0.09 0.09 90 1021.5
20260507034426 33 129 1.0 5.0 0.00 0.09 0.09 88 1021.5
20260507032925 33 127 1.0 5.0 0.00 0.09 0.09 88 1021.5
20260507031426 33 133 2.0 5.0 0.00 0.09 0.09 87 1021.3
20260507025927 33 122 1.0 7.0 0.00 0.09 0.09 85 1021.3
20260507025130 34 129 3.0 7.0 0.00 0.09 0.09 84 1021.0
20260507022926 34 144 1.0 4.0 0.00 0.09 0.09 82 1021.0
20260507021426 34 137 2.0 6.0 0.00 0.09 0.09 81 1020.9
20260507015924 35 171 3.0 8.0 0.00 0.09 0.09 78 1020.8
20260507014424 36 156 4.0 9.0 0.00 0.09 0.09 75 1020.8
20260507014211 39 157 5.0 10.0 0.00 0.10 0.09 68 1020.8
20260507012938 38 143 4.0 10.0 0.00 0.09 0.09 70 1020.8
20260507005920 39 146 4.0 11.0 0.00 0.10 0.09 70 1020.7
20260507005122 38 143 4.0 10.0 0.00 0.11 0.09 70 1020.6
20260507004325 39 160 5.0 12.0 0.00 0.11 0.09 68 1020.6
20260507001419 41 159 5.0 13.0 0.00 0.11 0.09 62 1020.4
20260506235919 42 224 2.0 7.0 0.00 0.11 0.09 63 1020.4
20260506234419 41 236 2.0 7.0 0.00 0.11 0.09 61 1020.4
20260506233616 40 253 1.0 6.0 0.01 0.12 0.09 63 1020.4
20260506231417 38 53 1.0 4.0 0.01 0.12 0.09 66 1020.6
20260506225917 38 293 1.0 5.0 0.01 0.13 0.09 67 1020.6
20260506224417 38 331 1.0 5.0 0.02 0.13 0.09 69 1020.4
20260506223610 36 333 2.0 9.0 0.01 0.12 0.08 72 1020.4
20260506221413 36 279 3.0 7.0 0.02 0.12 0.08 75 1020.7
20260506215913 37 329 1.0 5.0 0.03 0.13 0.08 75 1020.8
20260506214414 36 48 2.0 7.0 0.02 0.12 0.07 77 1020.7